Home > Weather > Choloma > Past weeks

Flag for Honduras Weather for the Past 2 Weeks in Choloma, Honduras

Now
81 °F

Broken clouds.


Feels Like: 89 °F
Forecast: 77 / 89 °F
Wind: No wind

Location: La Mesa San Pedro Sula

Current Time: Apr 29, 2016 at 7:09:19 AM

Latest Report: Apr 29, 2016 at 6:00 AM


Visibility: 2 mi

Pressure: 29.80 "Hg

Humidity: 100%

Dew Point: 81 °F

Location of CholomaLocation

Historic Weather in Choloma — Graph

°F

Choloma Temperature Yesterday

Maximum temperature yesterday: 100 °F (at 12:00 PM)
Minimum temperature yesterday: 77 °F (at 5:00 AM)
Average temperature yesterday: 87 °F

High & Low Weather Summary for the Past Weeks

 TemperatureHumidityPressure
High100 °F (Apr 27, 1:00 PM)100% (Apr 14, 6:00 AM)30.01 "Hg (Apr 14, 6:00 AM)
Low70 °F (Apr 21, 6:00 AM)34% (Apr 17, 2:00 PM)29.65 "Hg (Apr 27, 2:00 PM)
Average84 °F84%29.85 "Hg
* Reported Apr 14 6:00 AM — Apr 29 6:00 AM, Choloma, Weather by CustomWeather, © 2016

Note: Actual official high and low records may vary slightly from our data, if they occured in-between our weather recording intervals... More about our weather records

Advertising

Choloma Weather History for the Previous 24 Hours

Scroll right to see more
 ConditionsComfort  
Time TempWeatherWind HumidityBarometerVisibility
6:00 AM
Fri, Apr 29
81 °FBroken clouds.No wind100%29.80 "Hg2 mi
4:00 AM81 °FPassing clouds.No wind100%29.77 "HgN/A
3:00 AM81 °FPassing clouds.No wind100%29.77 "HgN/A
2:00 AM81 °FPassing clouds.2 mph100%29.77 "HgN/A
1:00 AM82 °FPassing clouds.No wind100%29.80 "HgN/A
12:00 AM82 °FPassing clouds.2 mph100%29.80 "HgN/A
11:00 PM
Thu, Apr 28
84 °FPassing clouds.3 mph94%29.80 "HgN/A
10:00 PM84 °FPartly cloudy.3 mph89%29.80 "HgN/A
7:00 PM86 °FPassing clouds.6 mph89%29.77 "HgN/A
6:00 PM86 °FPartly sunny.14 mph89%29.74 "HgN/A
5:00 PM90 °FPartly sunny.14 mph84%29.71 "HgN/A
4:00 PM93 °FPartly sunny.18 mph75%29.68 "HgN/A
3:00 PM95 °FPartly sunny.21 mph71%29.71 "HgN/A
2:00 PM99 °FPartly sunny.18 mph60%29.71 "HgN/A
1:00 PM100 °FPartly sunny.9 mph47%29.74 "HgN/A
12:00 PM100 °FPartly sunny.5 mph45%29.77 "HgN/A
11:00 AM99 °FPartly sunny.9 mph47%29.80 "HgN/A
10:00 AM97 °FPartly sunny.12 mph53%29.80 "Hg4 mi
9:00 AM91 °FPartly sunny.7 mph67%29.83 "Hg3 mi
8:00 AM84 °FPartly sunny.No wind89%29.83 "Hg2 mi
7:00 AM81 °FPartly sunny.No wind94%29.80 "Hg2 mi
Weather by CustomWeather, © 2016

See weather overviewHow to use our weather pages